Пархар

Таджикистан     37°29′18″N   69°24′04″E
темп.,
°C
ветер,
м/с
пор.,
м/с
влажн.,
%
обл.,
%
осадки,
мм/ч
давл.,
гПа
погр.,
м
13 апреля, вт
вт1323:00+20с71339100 0.1 1016275
02:00+17с4762100 0.3 1020220
05:00+14ссв3485100 3.0 1021204
08:00+16ссз3478100 0.0 1022150
11:00+20ссв125511 0.0 1021754
14:00+23зсз114370 0.0 10191419
17:00+24сз2242100 0.0 10171022
20:00+19с3359100 0.0 101837
14 апреля, ср
ср1423:00+15ссз4669100 0.0 1018107
02:00+13ссз34689 0.0 101666
05:00+13ссз326689 0.0 101629
08:00+16с235498 0.0 1017189
11:00+21ссв2240100 0.0 1016496
14:00+25с3330100 0.0 1013850
17:00+25с3435100 0.0 1010327
20:00+20ююз2243100 0.0 101114
15 апреля, чт
чт1523:00+18сз1248100 0.0 101215
02:00+17ссз2249100 0.0 101222
05:00+15ссз3349100 0.0 101229
08:00+17в0154100 0.4 1015101
11:00+20юв1352100 1.3 1016504
14:00+23ююз2336100 0.0 10141423
17:00+23ююв2242100 0.0 1013787
20:00+18з115894 0.0 101411
16 апреля, пт
пт1623:00+16с3366100 0.0 101426
02:00+15ссз3373100 0.0 101339
05:00+14ссз33754 0.0 101328
08:00+17с12605 0.0 1014190
11:00+22с224448 0.0 1013659
14:00+26с1230100 0.0 10111658
17:00+26с1230100 0.0 10091588
20:00+21ююз2239100 0.0 101011
17 апреля, сб
сб1723:00+19зсз0147100 0.0 101011
02:00+17ссз3254100 0.0 101029
05:00+16ссз2258100 0.0 101014
08:00+19с2255100 0.0 1012121
11:00+23ссв0043100 0.0 1012482
14:00+26юв1233100 0.0 10101376
17:00+26юв223323 0.0 10101697
20:00+21ююз5839100 0.0 1012198